Home   Weather   Demmin   Past weeks

Flag for Germany Past Weather in Demmin, Mecklenburg-Western Pomerania, Germany — Yesterday and Last 2 Weeks

Now
48 °F

Partly sunny.


Feels Like: 43 °F
Forecast: 47 / 49 °F
Wind: 13 mph from West

Location: Laage

Current Time: Dec 9, 2016 at 12:50:07 pm

Latest Report: Dec 9, 2016 at 12:20 pm


Visibility: N/A

Pressure: 30.18 "Hg

Humidity: 87%

Dew Point: 45 °F

Location of DemminLocation

Past Weather in Demmin — Graph

°F

Demmin Temperature Yesterday

Maximum temperature yesterday: 48 °F (at 10:49 am)
Minimum temperature yesterday: 43 °F (at 12:20 am)
Average temperature yesterday: 46 °F

High & Low Weather Summary for the Past Weeks

 TemperatureHumidityPressure
High48 °F (Dec 8, 10:49 am)100% (Nov 24, 6:20 pm)30.60 "Hg (Nov 24, 6:20 pm)
Low23 °F (Dec 3, 8:20 am)52% (Nov 28, 11:52 am)29.71 "Hg (Dec 1, 8:20 pm)
Average37 °F85%30.21 "Hg
* Reported Nov 24 11:20 am — Dec 9 11:20 am, Demmin, Weather by CustomWeather, © 2016

Note: Actual official high and low records may vary slightly from our data, if they occured in-between our weather recording intervals... More about our weather records

Advertising

Demmin Weather History for the Previous 24 Hours

Scroll right to see more
 ConditionsComfort  
Time TempWeatherWind HumidityBarometerVisibility
11:20 am
Fri, Dec 9
48 °FPartly sunny.17 mph87%30.15 "HgN/A
10:20 am48 °FPartly sunny.16 mph87%30.15 "Hg6 mi
10:03 am48 °FPartly sunny.15 mph94%30.15 "Hg4 mi
9:20 am46 °FDrizzle. Fog.12 mph100%30.12 "Hg1 mi
8:20 am46 °FDrizzle. Fog.14 mph93%30.12 "Hg1 mi
7:20 am46 °FFog.9 mph93%30.12 "Hg1 mi
6:20 am45 °FDrizzle. Fog.9 mph100%30.12 "Hg1 mi
5:20 am45 °FFog.12 mph93%30.12 "Hg1 mi
4:20 am45 °FFog.14 mph93%30.12 "Hg1 mi
3:50 am45 °FFog.13 mph93%30.12 "Hg3 mi
3:20 am45 °FPassing clouds.10 mph93%30.12 "Hg4 mi
2:20 am45 °FPassing clouds.8 mph87%30.15 "Hg4 mi
1:20 am45 °FPassing clouds.10 mph87%30.15 "Hg5 mi
12:20 am45 °FPartly cloudy.14 mph81%30.12 "HgN/A
11:20 pm
Thu, Dec 8
45 °FPassing clouds.14 mph87%30.15 "HgN/A
10:20 pm46 °FPartly cloudy.12 mph87%30.12 "Hg4 mi
9:20 pm46 °FPassing clouds.9 mph87%30.15 "Hg4 mi
8:20 pm46 °FDrizzle. Fog.9 mph93%30.15 "Hg3 mi
7:20 pm46 °FRain. Fog.12 mph93%30.15 "Hg2 mi
6:20 pm46 °FPassing clouds.10 mph87%30.15 "Hg5 mi
5:20 pm48 °FPassing clouds.13 mph87%30.15 "Hg6 mi
4:20 pm48 °FPassing clouds.14 mph82%30.15 "HgN/A
3:20 pm48 °FPartly sunny.12 mph82%30.15 "HgN/A
2:20 pm48 °FPartly sunny.12 mph82%30.15 "HgN/A
1:20 pm48 °FPartly sunny.14 mph82%30.12 "HgN/A
12:20 pm48 °FPartly sunny.12 mph82%30.15 "HgN/A
Weather by CustomWeather, © 2016

See weather overviewHow to use our weather pages